Location: *
(38.9800°N, 16.0500°E)
Time: 04:48:49
(UTC+00:00)

Cosmos 1378 Rocket - Pass Details

Date: 07 April 2020
Orbit: 600 x 628 km, 82.5° (Epoch: 05 June)

Event Time Altitude Azimuth Distance (km) Brightness Sun altitude
Exits shadow 03:40:06 - 202° (SSW) 2,667 6.4 -10.4°
Reaches altitude 10° 03:41:55 10° 207° (SSW) 1,949 5.7 -10.1°
Maximum altitude 03:46:03 45° 281° (W) 837 3.9 -9.3°
Drops below altitude 10° 03:50:16 10° 354° (N) 1,979 6.3 -8.5°
Sets 03:52:35 0° 1° (N) 2,894 7.2 -8.1°
